Weather History for Cadillac, MI

Change the Weather History Date:

Sunday, February 9, 2014

  Actual Average Record
Temperature  
Mean Temperature 10 °F -  
Max Temperature 19 °F 25 °F 75 °F (1997)
Min Temperature 0 °F 6 °F -32 °F (1951)
Degree Days  
Heating Degree Days 56    
Moisture  
Dew Point 7 °F    
Average Humidity 81    
Maximum Humidity 93    
Minimum Humidity 63    
Precipitation  
Precipitation 0.00 in - - ()
Sea Level Pressure  
Sea Level Pressure 30.00 in    
Wind  
Wind Speed 2 mph (WNW)    
Max Wind Speed 13 mph    
Max Gust Speed 17 mph    
Visibility 6 miles    
Events Snow    
Averages and records for this station are not official NWS values.
T = Trace of Precipitation, MM = Missing Value Source: NWS Daily Summary

Daily Weather History Graph

Daily Weather History Graph

Search for Another Location

Airport:

Trip Planner

Search our weather history database for the weather conditions in past years. The results will help you decide how hot, cold, wet, or windy it might be!

Date:

Astronomy

Feb. 09, 2014 Rise Set
Actual Time 7:49 AM EST 6:02 PM EST
Civil Twilight 7:19 AM EST 6:32 PM EST
Nautical Twilight 6:45 AM EST 7:07 PM EST
Astronomical Twilight 6:11 AM EST 7:40 PM EST
Moon 1:38 PM EST (2/9) 3:58 AM EST (2/9)
Length of Visible Light 11h 13m
Length of Day
10h 12m
Waxing Gibbous, 77% of the Moon is Illuminated
Feb 9
Waxing Gibbous
Feb 14
Full
Feb 22
Last Quarter
Mar 1
New
Mar 8
First Quarter

Hourly Weather History & Observations

Time (EST) Temp. Windchill Dew Point Humidity Pressure Visibility Wind Dir Wind Speed Gust Speed Precip Events Conditions
12:14 AM 4.5 °F - 0.5 °F 84% 30.04 in 10.0 mi Calm Calm - N/A   Scattered Clouds
12:35 AM 2.8 °F -6.6 °F 0.1 °F 88% 30.04 in 10.0 mi SSW 4.6 mph - N/A Snow Light Snow
12:55 AM 1.2 °F - -1.7 °F 88% 30.03 in 7.0 mi Calm Calm - N/A Snow Light Snow
1:14 AM 2.3 °F - -1.7 °F 84% 30.03 in 10.0 mi Calm Calm - N/A Snow Light Snow
1:35 AM 0.1 °F - -3.8 °F 83% 30.02 in 4.0 mi Calm Calm - N/A Snow Light Snow
1:55 AM 2.5 °F - -2.7 °F 79% 30.02 in 4.0 mi Calm Calm - N/A Snow Light Snow
2:14 AM 1.9 °F - -1.5 °F 86% 30.01 in 7.0 mi Calm Calm - N/A Snow Light Snow
2:35 AM 3.9 °F - -1.1 °F 80% 30.01 in 10.0 mi Calm Calm - N/A   Overcast
2:55 AM 5.0 °F - 1.6 °F 86% 30.01 in 4.0 mi Calm Calm - N/A Snow Light Snow
3:14 AM 5.2 °F - 1.2 °F 84% 30.00 in 3.0 mi Calm Calm - N/A Snow Light Snow
3:35 AM 7.0 °F - 2.7 °F 82% 30.00 in 1.2 mi Calm Calm - N/A Snow Snow
3:55 AM 6.4 °F - 3.0 °F 86% 29.98 in 1.0 mi Calm Calm - N/A Snow Light Snow
4:14 AM 8.2 °F - 5.4 °F 88% 29.98 in 1.8 mi Calm Calm - N/A Snow Light Snow
4:35 AM 9.7 °F - 5.4 °F 83% 29.99 in 1.2 mi Calm Calm - N/A Snow Snow
4:55 AM 8.8 °F - 6.6 °F 91% 29.99 in 1.2 mi Calm Calm - N/A Snow Light Snow
5:14 AM 11.5 °F - 6.8 °F 81% 29.98 in 0.8 mi Calm Calm - N/A Snow Snow
5:35 AM 10.9 °F - 6.8 °F 83% 29.98 in 0.8 mi Calm Calm - N/A Snow Snow
5:55 AM 10.9 °F - 7.0 °F 84% 29.98 in 0.8 mi Calm Calm - N/A Snow Snow
6:14 AM 9.0 °F - 5.9 °F 87% 29.98 in 1.2 mi Calm Calm - N/A Snow Light Snow
6:35 AM 8.1 °F - 5.9 °F 91% 29.98 in 1.5 mi Calm Calm - N/A Snow Light Snow
6:54 AM 9.0 °F - 6.3 °F 89% 29.98 in 1.2 mi Calm Calm - N/A Snow Light Snow
7:14 AM 8.6 °F - 5.9 °F 89% 29.98 in 2.5 mi Calm Calm - N/A Snow Light Snow
7:35 AM 11.1 °F - 6.4 °F 81% 29.98 in 2.0 mi Calm Calm - N/A Snow Light Snow
7:55 AM 10.0 °F - 5.4 °F 81% 29.98 in 1.2 mi Calm Calm - N/A Snow Light Snow
8:14 AM 9.5 °F - 5.7 °F 85% 29.98 in 1.0 mi Calm Calm - N/A Snow Light Snow
8:35 AM 7.2 °F - 4.1 °F 87% 29.98 in 1.5 mi Calm Calm - N/A Snow Light Snow
8:54 AM 7.2 °F - 5.0 °F 91% 29.98 in 1.5 mi Calm Calm - N/A Snow Light Snow
9:14 AM 7.7 °F - 5.9 °F 92% 29.98 in 4.0 mi Calm Calm - N/A Snow Light Snow
9:35 AM 8.6 °F - 6.4 °F 91% 29.97 in 7.0 mi Calm Calm - N/A Snow Light Snow
9:54 AM 9.5 °F - 6.8 °F 89% 29.97 in 2.5 mi Calm Calm - N/A Snow Light Snow
10:14 AM 9.5 °F - 6.3 °F 87% 29.96 in 10.0 mi Calm Calm - N/A   Mostly Cloudy
10:35 AM 11.1 °F - 7.9 °F 87% 29.96 in 10.0 mi Calm Calm - N/A   Scattered Clouds
10:54 AM 12.6 °F - 8.8 °F 85% 29.96 in 10.0 mi Calm Calm - N/A   Clear
11:15 AM 14.7 °F - 10.6 °F 84% 29.96 in 10.0 mi Calm Calm - N/A   Mostly Cloudy
11:35 AM 18.3 °F 10.2 °F 10.0 °F 70% 29.97 in 10.0 mi WNW 5.8 mph - N/A   Overcast
11:54 AM 19.0 °F 11.1 °F 9.0 °F 65% 29.96 in 10.0 mi WNW 5.8 mph - N/A   Scattered Clouds
12:15 PM 18.7 °F 8.6 °F 7.9 °F 63% 29.96 in 10.0 mi WNW 8.1 mph - N/A   Mostly Cloudy
12:35 PM 18.3 °F 11.5 °F 9.3 °F 68% 29.96 in 10.0 mi WNW 4.6 mph - N/A   Overcast
12:54 PM 18.5 °F 8.4 °F 8.1 °F 64% 29.95 in 10.0 mi WNW 8.1 mph - N/A   Overcast
1:15 PM 18.3 °F 8.2 °F 9.5 °F 68% 29.95 in 7.0 mi WNW 8.1 mph - N/A Snow Light Snow
1:35 PM 18.1 °F 7.1 °F 8.6 °F 66% 29.96 in 7.0 mi WNW 9.2 mph - N/A Snow Light Snow
1:54 PM 17.8 °F 6.6 °F 9.5 °F 70% 29.96 in 7.0 mi WNW 9.2 mph - N/A Snow Light Snow
2:15 PM 18.7 °F 13.5 °F 9.7 °F 68% 29.95 in 10.0 mi NW 3.5 mph - N/A   Overcast
2:35 PM 18.5 °F 7.5 °F 8.8 °F 66% 29.95 in 10.0 mi WNW 9.2 mph - N/A   Overcast
2:54 PM 18.5 °F 9.3 °F 9.5 °F 68% 29.94 in 10.0 mi West 6.9 mph - N/A   Overcast
3:15 PM 19.2 °F 7.7 °F 8.8 °F 64% 29.94 in 10.0 mi West 10.4 mph - N/A   Overcast
3:35 PM 18.5 °F 9.3 °F 9.0 °F 66% 29.95 in 10.0 mi NW 6.9 mph - N/A   Overcast
3:54 PM 19.0 °F 9.0 °F 11.5 °F 72% 29.95 in 5.0 mi NW 8.1 mph - N/A Snow Light Snow
4:15 PM 18.1 °F 8.9 °F 10.6 °F 72% 29.96 in 10.0 mi NW 6.9 mph - N/A   Overcast
4:34 PM 17.8 °F 4.6 °F 11.1 °F 75% 29.97 in 10.0 mi WNW 12.7 mph 17.3 mph N/A Snow Light Snow
4:54 PM 16.7 °F 5.3 °F 10.8 °F 77% 29.98 in 10.0 mi WNW 9.2 mph - N/A Snow Light Snow
5:15 PM 16.7 °F 7.2 °F 11.8 °F 81% 29.98 in 10.0 mi NNW 6.9 mph - N/A Snow Light Snow
5:34 PM 17.1 °F 5.8 °F 13.1 °F 84% 29.99 in 0.8 mi West 9.2 mph - N/A Snow Light Snow
5:55 PM 15.8 °F 5.1 °F 10.2 °F 79% 30.00 in 10.0 mi WNW 8.1 mph - N/A   Overcast
6:15 PM 14.9 °F 2.3 °F 9.9 °F 80% 30.01 in 10.0 mi NW 10.4 mph - N/A   Overcast
6:34 PM 14.5 °F 4.6 °F 9.7 °F 81% 30.02 in 10.0 mi NW 6.9 mph - N/A   Overcast
6:55 PM 13.8 °F 3.7 °F 9.0 °F 81% 30.03 in 10.0 mi NW 6.9 mph - N/A Snow Light Snow
7:15 PM 13.3 °F 5.6 °F 8.8 °F 82% 30.04 in 10.0 mi WNW 4.6 mph - N/A Snow Light Snow
7:34 PM 13.5 °F 2.2 °F 8.2 °F 80% 30.05 in 10.0 mi WNW 8.1 mph - N/A Snow Light Snow
7:55 PM 13.1 °F 5.4 °F 7.7 °F 79% 30.05 in 10.0 mi WNW 4.6 mph - N/A   Overcast
8:15 PM 12.4 °F 6.3 °F 7.5 °F 81% 30.05 in 10.0 mi West 3.5 mph - N/A   Overcast
8:34 PM 12.9 °F 6.9 °F 7.7 °F 80% 30.06 in 10.0 mi West 3.5 mph - N/A   Overcast
8:55 PM 12.6 °F 6.5 °F 8.4 °F 83% 30.06 in 7.0 mi West 3.5 mph - N/A Snow Light Snow
9:14 PM 12.2 °F 6.1 °F 8.4 °F 85% 30.06 in 10.0 mi West 3.5 mph - N/A   Overcast
9:35 PM 11.7 °F 5.5 °F 8.4 °F 87% 30.07 in 4.0 mi WSW 3.5 mph - N/A Snow Light Snow
9:55 PM 10.8 °F 2.7 °F 8.2 °F 90% 30.07 in 4.0 mi WSW 4.6 mph - N/A Snow Light Snow
10:14 PM 9.9 °F 1.6 °F 7.7 °F 91% 30.07 in 7.0 mi SW 4.6 mph - N/A Snow Light Snow
10:35 PM 8.2 °F 1.6 °F 6.6 °F 93% 30.07 in 2.5 mi WSW 3.5 mph - N/A Snow Light Snow
10:55 PM 7.0 °F -1.7 °F 5.0 °F 92% 30.07 in 10.0 mi SW 4.6 mph - N/A   Overcast
11:14 PM 9.5 °F 3.0 °F 7.2 °F 90% 30.07 in 10.0 mi West 3.5 mph - N/A   Overcast
11:35 PM 8.1 °F - 3.9 °F 83% 30.07 in 7.0 mi Calm Calm - N/A Snow Light Snow
11:55 PM 6.6 °F - 3.2 °F 86% 30.08 in 5.0 mi Calm Calm - N/A Snow Light Snow